Regional Weather Roundup
Issued by NWS

Home | Current Version | Previous Version | Text Only | Print | Product List | Glossary On
Versions: 1 2 3 4 5 6 7 8 9 10 11 12 13 14 15 16 17 18 19 20 21 22 23 24 25 26 27 28 29 30 31 32 33 34 35 36 37 38 39 40 41 42 43 44 45 46 47 48 49 50
000
ASUS43 KMPX 190701
RWRMN
WEATHER ROUNDUP FOR MINNESOTA
NATIONAL WEATHER SERVICE TWIN CITIES/CHANHASSEN MN
100 AM CST FRI JAN 19 2018


NOTE: "FAIR" INDICATES FEW OR NO CLOUDS BELOW 12,000 FEET WITH NO
SIGNIFICANT WEATHER AND/OR OBSTRUCTIONS TO VISIBILITY. N/A MEANS
CURRENT SKY AND/OR WEATHER CONDITIONS ARE NOT AVAILABLE.

MNZ060>063-068>070-190800-
   Twin Cities Metro

CITY           SKY/WX    TMP DP  RH WIND       PRES   REMARKS
TWIN CITIES    CLOUDY    31  27  85 SW5       29.73F WCI  26
ST PAUL        FAIR      28  25  88 SE9       29.74F WCI  19
CRYSTAL        FAIR      30  24  78 S6        29.70F WCI  24
BLAINE         FAIR      34  28  80 S8        29.70F WCI  27
LAKEVILLE      FAIR      30  27  86 CALM      29.73F
EDEN PRAIRIE   FAIR      29  25  85 SW6       29.72S WCI  23
SOUTH ST PAUL  FAIR      28  27  96 SE5       29.72F WCI  23
LAKE ELMO      FAIR      30  27  86 S8        29.72F WCI  23
$$
MNZ001>005-007-008-013>017-022>024-027-028-190800-
   Northwest Minnesota

CITY           SKY/WX    TMP DP  RH WIND       PRES   REMARKS
BEMIDJI        FAIR      29  22  74 S6        29.55S WCI  23
HALLOCK        FAIR      27  25  93 S17       29.46F WCI  14
ROSEAU         FAIR      28  25  86 S9        29.45F WCI  20
WARROAD        FAIR      28  25  86 SW13      29.45F WCI  18
CROOKSTON      FAIR      28  25  86 S12       29.54F WCI  18
FOSSTON        FAIR      28  23  80 S15       29.56S WCI  17
DETROIT LAKES  FAIR      32  27  80 SW7       29.61S WCI  26
MOORHEAD       FAIR      32  25  74 S12       29.61S WCI  23
PARK RAPIDS    FAIR      24  19  81 S5        29.58F WCI  18
MAHNOMEN       FAIR      30  24  79 S13       29.58R WCI  20
$$
MNZ006-009>011-018-025>026-190800-
   North Central Minnesota

CITY           SKY/WX    TMP DP  RH WIND       PRES   REMARKS
BAUDETTE       FAIR      26  21  81 S5        29.47F WCI  20
FLAG ISLAND    FAIR      21  18  86 S8        29.46S WCI  12
INTL FALLS     FAIR      24  21  88 SE6       29.51F WCI  17
WASKISH        FAIR      30  23  74 S10G17    29.49F WCI  21
BIG FORK       FAIR      28  21  74 S8        29.54F WCI  20
LONGVILLE      FAIR      28  23  80 S6        29.59F WCI  22
GRAND RAPIDS   FAIR      26  21  81 S5        29.60F WCI  20
CRANE LAKE     FAIR      16  16 100 CALM      29.57F
ORR            FAIR      25  21  86 SE5       29.53F WCI  19
COOK             N/A     23  21  93 CALM      29.57F
WALKER         FAIR      28  22  76 S6        29.57F WCI  22
$$
MNZ012-019>021-037-190800-
   Northeast Minnesota

CITY           SKY/WX    TMP DP  RH WIND       PRES   REMARKS
DULUTH         FAIR      28  22  78 SW5       29.61F WCI  23
ELY            FAIR      21  21 100 CALM      29.58F
HIBBING        FAIR      21  19  92 CALM      29.58F
EVELETH        FAIR      17  14  86 CALM      29.61S
DULUTH HARBOR  FAIR      27  25  93 SW6       29.66F WCI  20
TWO HARBORS    FAIR      21  18  86 CALM      29.61F
SILVER BAY     FAIR      21  21 100 CALM      29.61F
GRAND MARAIS     N/A     30  24  78 W3        29.65F
G MARAIS ARPRT CLOUDY    23  19  86 CALM      29.59S
$$
MNZ029>031-032-039>041-046>048-054>057-064-190800-
   West Central Minnesota

CITY           SKY/WX    TMP DP  RH WIND       PRES   REMARKS
FERGUS FALLS   FAIR      27  23  86 S8        29.62F WCI  18
WHEATON        CLOUDY    36  27  69 S10       29.65F
MORRIS         CLOUDY    30  27  86 S9        29.64F WCI  22
ALEXANDRIA     FAIR      33  26  75 SW12      29.64F WCI  24
ELBOW LAKE     FAIR      29  26  88 S7        29.64S WCI  22
WADENA         FAIR      27  23  86 CALM      29.61F
GLENWOOD       FAIR      28  27  93 SW7       29.65F WCI  21
APPLETON       CLOUDY    36  27  69 S6        29.67F
BENSON         CLOUDY    30  27  86 SW5       29.69F WCI  25
ORTONVILLE     CLOUDY    36  27  69 S8        29.65F
MADISON        CLOUDY    37  30  75 SW8       29.67F
WILLMAR        FAIR      30  27  86 CALM      29.70F
$$
MNZ033>034-036-042>043-049>051-058-059-190800-
   Central Minnesota

CITY           SKY/WX    TMP DP  RH WIND       PRES   REMARKS
ST CLOUD       FAIR      26  24  92 S6        29.67F WCI  19
SAUK CENTRE      N/A     30  26  85 S6        29.65F WCI  24
PAYNESVILLE    FAIR      31  28  88 S5        29.67F WCI  27
AITKIN         FAIR      25  21  86 S3        29.63F
PINE RIVER     FAIR      21  18  86 SE3       29.65F
BRAINERD       FAIR      28  22  78 S6        29.63F WCI  22
STAPLES        FAIR      25  21  86 S3        29.62F
LONG PRAIRIE   FAIR      28  25  86 S6        29.64F WCI  22
LITTLE FALLS   FAIR      28  21  74 SE6       29.65F WCI  22
LITCHFIELD     FAIR      30  28  93 SW3       29.70F
BUFFALO        FAIR      29  26  88 S3        29.71F
MAPLE LAKE     FAIR      29  28  93 MISG      29.70F
HUTCHINSON     FAIR      32  28  86 S6        29.72F WCI  26
$$
MNZ037-044-045-052-053-190800-
   East Central Minnesota

CITY           SKY/WX    TMP DP  RH WIND       PRES   REMARKS
PRINCETON      FAIR      30  27  86 S5        29.69S WCI  25
MORA           FAIR      19  16  86 CALM      29.69F
CAMBRIDGE      FAIR      30  25  80 S6        29.69F WCI  24
RUSH CITY      FAIR      27  24  89 S5        29.69F WCI  22
MOOSE LAKE     FAIR      23  21  93 CALM      29.64F
HINCKLEY       FAIR      23  23 100 CALM      29.68F
CLOQUET        FAIR      27  21  80 SW8       29.63F WCI  18
MCGREGOR       FAIR      27  23  86 S3        29.63F
$$
MNZ071>073-080-081-089-090-097-098-190800-
   Southwest Minnesota

CITY           SKY/WX    TMP DP  RH WIND       PRES   REMARKS
MONTEVIDEO     CLOUDY    34  28  80 SW6       29.68F WCI  29
GRANITE FALLS  CLOUDY    33  30  87 S5        29.71F WCI  29
CANBY          CLOUDY    40  28  62 SW15G22   29.68F
MARSHALL       CLOUDY    35  27  72 CALM      29.70F
REDWOOD FALLS  CLOUDY    31  27  85 SW6       29.70F WCI  25
OLIVIA         CLOUDY    32  28  86 S5        29.70F WCI  27
PIPESTONE      CLOUDY    30  27  86 SW6       29.72F WCI  24
WINDOM         CLOUDY    32  18  55 S12       29.74F WCI  23
WORTHINGTON    CLOUDY    30  26  85 SW10      29.75F WCI  21
JACKSON        CLOUDY    30  27  86 SW12      29.75F WCI  21
SLAYTON        CLOUDY    32  28  86 S8        29.73F WCI  24
$$
MNZ065>067-074>077-082>085-091>093-190800-
   South Central Minnesota

CITY           SKY/WX    TMP DP  RH WIND       PRES   REMARKS
MANKATO        FAIR      30  26  85 S8        29.75F WCI  22
NEW ULM        CLOUDY    32  27  80 SW8       29.73F WCI  25
ST JAMES       CLOUDY    32  28  86 S6        29.75S WCI  26
FAIRMONT       PTCLDY    30  26  85 SW10      29.76F WCI  21
FARIBAULT      FAIR      28  25  86 S8        29.75F WCI  20
OWATONNA       FAIR      28  23  80 S10       29.76S WCI  19
WASECA         FAIR      28  23  80 S9        29.77F WCI  20
ALBERT LEA     FAIR      28  21  74 SW9       29.77F WCI  20
$$
MNZ078>079-086>088-094>096-190800-
   Southeast Minnesota

CITY           SKY/WX    TMP DP  RH WIND       PRES   REMARKS
ROCHESTER      FAIR      26  21  81 SW13      29.76F WCI  15
RED WING       FAIR      28  21  74 S3        29.76S
STANTON        FAIR      31  25  78 SW13      29.73F WCI  21
DODGE CENTER   FAIR      27  21  80 SW17      29.75F WCI  14
WINONA         FAIR      30  23  74 CALM      29.79S
PRESTON        FAIR      26  20  79 SW15G21   29.77F WCI  14
$$
ABBREVIATIONS USED IN REMARKS
   TC - TEMPERATURES IN CELSIUS
  WCI - WIND CHILL INDEX
   HX - HEAT INDEX
  VSB - VISIBILITY
$$




USA.gov is the U.S. government's official web portal to all federal, state and local government web resources and services.